{"data":{"norad_id":59330,"intl_designator":"2024-057L","name":"STARLINK-31634","alt_names":[],"object_type":"PAYLOAD","status":"ACTIVE","operator":null,"country":"US","launch_date":"2024-03-25","launch_site_code":"AFETR","launch_vehicle":null,"mission":null,"orbit_class":"UNKNOWN","rcs_meters":null,"size_class":null,"mass_kg":null,"dimensions":null,"purposes":["comms"],"wikipedia_slug":null,"has_3d_model":false,"image_url":null,"decayed_at":null,"tle_current":{"epoch":"2026-09-21T02:39:50.739552Z","epoch_age_seconds":109494,"freshness":"FRESH","line1":"1 59330U 24057L   26264.11100393  .00000097  00000+0  13056-4 0  9990","line2":"2 59330  43.0029 163.6573 0001175 272.9925  87.0793 15.27572301139720","mean_motion":15.27572301,"eccentricity":0.0001175,"inclination_deg":43.0029,"raan_deg":163.6573,"arg_perigee_deg":272.9925,"mean_anomaly_deg":87.0793,"bstar":1.3056e-5,"rev_number":13972,"period_min":94.267223820262,"perigee_km":482.26595763709,"apogee_km":483.87834178727,"semimajor_km":6861.2091497122,"source":"CELESTRAK","updated_at":"2026-09-22T09:00:48.899867Z"}}}